TimeEDT,TemperatureF,Dew PointF,Humidity,Sea Level PressureIn,VisibilityMPH,Wind Direction,Wind SpeedMPH,Gust SpeedMPH,PrecipitationIn,Events,Conditions,WindDirDegrees,DateUTC
12:53 AM,82.0,73.9,76,29.98,10.0,ENE,4.6,-,N/A,,Mostly Cloudy,70,2012-10-06 04:53:00
1:53 AM,81.0,73.9,79,29.96,10.0,East,5.8,-,N/A,,Mostly Cloudy,90,2012-10-06 05:53:00
2:53 AM,82.0,73.9,76,29.94,10.0,ENE,3.5,-,N/A,,Scattered Clouds,70,2012-10-06 06:53:00
3:53 AM,80.1,73.9,81,29.92,10.0,East,5.8,-,N/A,,Scattered Clouds,90,2012-10-06 07:53:00
4:53 AM,80.1,73.9,81,29.92,10.0,ESE,5.8,-,N/A,,Scattered Clouds,110,2012-10-06 08:53:00
5:53 AM,81.0,75.0,82,29.93,10.0,Calm,Calm,-,N/A,,Scattered Clouds,0,2012-10-06 09:53:00
6:53 AM,80.1,75.0,85,29.94,10.0,Calm,Calm,-,N/A,,Scattered Clouds,0,2012-10-06 10:53:00
7:53 AM,80.1,75.0,85,29.95,10.0,Calm,Calm,-,N/A,,Mostly Cloudy,0,2012-10-06 11:53:00
8:53 AM,84.0,75.0,74,29.95,10.0,East,4.6,-,N/A,,Mostly Cloudy,90,2012-10-06 12:53:00
9:53 AM,84.9,75.0,72,29.95,10.0,Calm,Calm,-,N/A,,Mostly Cloudy,0,2012-10-06 13:53:00
10:53 AM,88.0,73.9,63,29.95,10.0,SE,4.6,-,N/A,,Mostly Cloudy,130,2012-10-06 14:53:00
11:53 AM,88.0,73.0,61,29.94,10.0,ESE,5.8,-,N/A,,Mostly Cloudy,110,2012-10-06 15:53:00
12:53 PM,88.0,72.0,59,29.93,10.0,East,9.2,-,N/A,,Mostly Cloudy,80,2012-10-06 16:53:00
1:53 PM,86.0,71.1,61,29.91,10.0,East,11.5,-,N/A,,Mostly Cloudy,90,2012-10-06 17:53:00
2:53 PM,84.0,73.0,69,29.89,10.0,ESE,8.1,-,N/A,,Mostly Cloudy,120,2012-10-06 18:53:00
3:53 PM,84.9,73.0,67,29.88,10.0,East,6.9,-,N/A,,Mostly Cloudy,100,2012-10-06 19:53:00
4:53 PM,84.9,73.0,67,29.87,10.0,East,8.1,-,N/A,,Mostly Cloudy,80,2012-10-06 20:53:00
5:53 PM,84.0,73.0,69,29.88,10.0,East,9.2,-,N/A,,Mostly Cloudy,90,2012-10-06 21:53:00
6:53 PM,84.2,73.4,70,29.89,10.0,East,11.5,-,N/A,,Mostly Cloudy,90,2012-10-06 22:53:00
7:53 PM,82.9,72.0,69,29.91,10.0,ENE,8.1,-,N/A,,Mostly Cloudy,70,2012-10-06 23:53:00
8:53 PM,82.9,72.0,69,29.94,10.0,East,11.5,-,N/A,,Mostly Cloudy,90,2012-10-07 00:53:00
9:53 PM,82.9,73.0,72,29.95,10.0,ESE,6.9,-,0.00,Rain,Light Rain,110,2012-10-07 01:53:00
10:53 PM,80.1,73.9,81,29.95,10.0,Calm,Calm,-,0.00,Rain,Light Rain,0,2012-10-07 02:53:00
11:53 PM,79.0,73.9,84,29.95,10.0,North,3.5,-,0.01,Rain,Light Rain,10,2012-10-07 03:53:00